This demonstration page uses our WeatherBlox Daily Observations layout. Learn more.

Left ArrowRight Arrow

Hourly Observations for July 12, 2021

Temp ( °F °C ) Dew Point ( °F °C ) Humidity (%) Winds ( mph kmh ) Pressure ( in mb ) Visibility ( mi km ) Precip ( " mm )
12:15 am 00:15 Clear 60 15.6 58 14.3 92 92 N N/A 30.08 1019 10 16 N/A
12:35 am 00:35 Clear 61 16 58 14.6 91 91 N N/A 30.08 1019 10 16 N/A
12:55 am 00:55 Clear 59 15.2 57 14.1 93 93 N N/A 30.08 1019 10 16 N/A
1:15 am 01:15 Clear 59 14.9 58 14.2 96 96 N N/A 30.09 1019 10 16 N/A
1:35 am 01:35 Clear 58 14.5 57 13.8 96 96 N N/A 30.09 1019 10 16 N/A
1:55 am 01:55 Clear 58 14.5 57 13.8 96 96 N N/A 30.08 1019 7 11 N/A
2:15 am 02:15 Clear 59 15.2 57 13.8 91 91 N N/A 30.07 1018 10 16 N/A
2:35 am 02:35 Clear 59 14.9 57 14.1 95 95 N N/A 30.08 1019 7 11 N/A
2:55 am 02:55 Clear 56 13.3 55 12.6 96 96 N N/A 30.09 1019 7 11 N/A
3:15 am 03:15 Clear 56 13.2 55 12.6 96 96 ENE 3 6 30.09 1019 7 11 N/A
3:35 am 03:35 Clear 56 13.4 55 12.7 96 96 N N/A 30.09 1019 7 11 N/A
3:55 am 03:55 Clear with Mist and Fog 56 13.5 55 12.9 96 96 N N/A 30.09 1019 5 8 N/A
4:15 am 04:15 Clear 56 13.1 54 12.4 96 96 N N/A 30.08 1019 10 16 N/A
4:35 am 04:35 Clear 55 12.7 54 12 96 96 N N/A 30.09 1019 7 11 N/A
4:55 am 04:55 Clear with Mist and Fog 55 12.7 54 12.1 96 96 N N/A 30.09 1019 5 8 N/A
5:15 am 05:15 undefined 54 12.3 53 11.9 97 97 NNW 3 6 30.09 1019 N/A N/A
5:35 am 05:35 Clear with Mist and Fog 55 13 55 12.6 97 97 N N/A 30.08 1019 3 5 N/A
5:55 am 05:55 Mostly Cloudy with Mist and Fog 54 12.2 53 11.8 97 97 N N/A 30.09 1019 2 3 N/A
6:15 am 06:15 Mostly Cloudy with Mist and Fog 55 12.5 54 12.2 98 98 N N/A 30.09 1019 2 3 N/A
6:35 am 06:35 Sunny with Mist and Fog 54 12.1 53 11.7 97 97 N N/A 30.09 1019 5 8 N/A
6:55 am 06:55 Sunny 53 11.8 52 11.2 96 96 N N/A 30.09 1019 7 11 N/A
7:15 am 07:15 Sunny with Mist and Fog 55 12.5 54 12 97 97 N N/A 30.10 1019 3 5 N/A
7:35 am 07:35 Sunny with Mist and Fog 56 13.4 55 12.9 97 97 N N/A 30.09 1019 4 6 N/A
7:55 am 07:55 Sunny with Mist and Fog 59 15 58 14.3 96 96 N N/A 30.08 1018 4 6 N/A
8:15 am 08:15 Sunny 61 16.2 59 15 93 93 N N/A 30.07 1018 7 11 N/A
8:35 am 08:35 Sunny 63 17.2 58 14.6 85 85 N N/A 30.06 1018 10 16 N/A
8:55 am 08:55 Sunny 65 18.5 59 15.2 81 81 N N/A 30.04 1017 10 16 N/A
9:15 am 09:15 Sunny 67 19.5 60 15.8 79 79 SW 3 6 30.04 1017 10 16 N/A
9:35 am 09:35 Sunny 70 21 60 15.7 72 72 SW 7 11 30.03 1017 10 16 N/A
9:55 am 09:55 Sunny 71 21.6 60 15.8 70 70 SW 7 11 30.03 1017 10 16 N/A
10:15 am 10:15 Sunny 72 22.1 59 15.1 65 65 WSW 6 9 30.01 1016 10 16 N/A
10:35 am 10:35 Sunny 74 23.1 59 14.9 60 60 SW 6 9 30.01 1016 10 16 N/A
10:55 am 10:55 Sunny 74 23.4 59 14.8 59 59 S 7 11 30.00 1016 10 16 N/A
11:15 am 11:15 Sunny 75 24 57 14.1 54 54 S 9 15 30.00 1016 10 16 N/A
11:35 am 11:35 Sunny 76 24.3 58 14.2 53 53 SSE 7 11 30.00 1016 10 16 N/A
11:55 am 11:55 Sunny 76 24.7 57 14.1 52 52 SW 5 7 29.99 1016 10 16 N/A
12:15 pm 12:15 Sunny 77 25.2 56 13.6 49 49 SSW 6 9 29.99 1015 10 16 N/A
12:35 pm 12:35 Sunny 78 25.6 57 14 49 49 SSW 5 7 29.98 1015 10 16 N/A
12:55 pm 12:55 Sunny 78 25.8 57 14.1 48 48 SW 6 9 29.97 1015 10 16 N/A
1:15 pm 13:15 Sunny 80 26.4 58 14.6 48 48 SSW 9 15 29.97 1015 10 16 N/A
1:35 pm 13:35 Sunny 80 26.5 58 14.5 48 48 S 7 11 29.97 1015 10 16 N/A
1:55 pm 13:55 Sunny 80 26.7 58 14.6 47 47 S 7 11 29.96 1014 10 16 N/A
2:15 pm 14:15 Sunny 80 26.9 58 14.7 47 47 SSW 7 11 29.95 1014 10 16 N/A
2:35 pm 14:35 Sunny 81 27.3 60 15.3 48 48 S 9 15 29.94 1014 10 16 N/A
2:55 pm 14:55 Sunny 81 27.4 60 15.5 48 48 S 8 13 29.94 1014 10 16 N/A
3:15 pm 15:15 Sunny 82 27.9 61 16.2 49 49 SSE 9 15 29.93 1013 10 16 N/A
3:35 pm 15:35 Sunny 83 28.1 61 15.9 47 47 SSE 6 9 29.91 1013 10 16 N/A
3:55 pm 15:55 Sunny 83 28.3 62 16.6 49 49 SE 6 9 29.91 1013 10 16 N/A
4:15 pm 16:15 Sunny 82 28 61 15.9 48 48 S 8 13 29.90 1013 10 16 N/A
4:35 pm 16:35 Sunny 83 28.2 62 16.9 50 50 SSE 10 17 29.90 1013 10 16 N/A
4:55 pm 16:55 Sunny 83 28.1 62 16.7 50 50 SE 8 13 29.90 1013 10 16 N/A
5:15 pm 17:15 Sunny 83 28.4 63 17.2 51 51 SE 10 17 29.90 1013 10 16 N/A
5:35 pm 17:35 Sunny 83 28.1 62 16.7 50 50 SE 9 15 29.89 1012 10 16 N/A
5:55 pm 17:55 Sunny 82 27.9 62 16.7 51 51 SSE 12 19 29.90 1012 10 16 N/A
6:15 pm 18:15 Sunny 82 27.7 63 17 52 52 SSE 9 15 29.89 1012 10 16 N/A
6:35 pm 18:35 Sunny 81 27.4 63 17.3 54 54 SE 12 19 29.89 1012 10 16 N/A
6:55 pm 18:55 Sunny 81 27 63 17.4 56 56 SE 10 17 29.89 1012 10 16 N/A
7:15 pm 19:15 Sunny 80 26.6 63 17.1 56 56 SE 10 17 29.90 1012 10 16 N/A
7:35 pm 19:35 Sunny 79 26.2 62 16.6 56 56 SE 9 15 29.90 1013 10 16 N/A
7:55 pm 19:55 Sunny 78 25.8 61 16.1 55 55 SE 9 15 29.90 1013 10 16 N/A
8:15 pm 20:15 Sunny 77 25.1 62 16.6 59 59 SE 8 13 29.91 1013 10 16 N/A
8:35 pm 20:35 Sunny 76 24.3 64 17.5 66 66 SE 8 13 29.92 1013 10 16 N/A
8:55 pm 20:55 Sunny 75 23.7 63 17.1 67 67 SE 8 13 29.93 1014 10 16 N/A
9:15 pm 21:15 Clear 73 23 63 17.1 70 70 SE 7 11 29.94 1014 10 16 N/A
9:35 pm 21:35 Clear 72 22.3 62 16.9 72 72 SE 7 11 29.94 1014 10 16 N/A
9:55 pm 21:55 Clear 71 21.8 62 16.8 73 73 SE 7 11 29.96 1014 10 16 N/A
10:15 pm 22:15 Clear 70 21.2 62 16.7 76 76 SE 7 11 29.96 1015 10 16 N/A
10:35 pm 22:35 Clear 67 19.5 62 16.9 85 85 SE 6 9 29.99 1015 10 16 N/A
10:55 pm 22:55 Clear 68 20.1 62 16.5 80 80 SSE 7 11 29.98 1015 10 16 N/A
11:15 pm 23:15 Clear 66 19 61 16.1 83 83 SSE 6 9 29.99 1016 10 16 N/A
11:35 pm 23:35 Clear 68 20.1 60 15.5 75 75 SE 8 13 29.98 1015 10 16 N/A
11:55 pm 23:55 Clear 68 20.1 60 15.7 76 76 SE 8 13 29.98 1015 10 16 N/A

Powered by AerisWeather